Starlink 33805

operational
NORAD ID: 63590 Int'l Des: 2025-076 Owner: SPXS Country: US Constellation: starlink
LEOCIRCULAR

About Starlink 33805

Description loading...

Live Position

Loading 3D Globe...

Upcoming Passes

Altitude History

Altitude vs Time

uPlot chart will show altitude changes over time

Two-Line Element Set

1 63590U 25076X 26061.54629724 .00025634 00000-0 93755-3 0 9999
2 63590 43.0064 2.3934 0001926 264.4556 95.6076 15.27588707 50731
Epoch: Mar 2, 2026 • Age: 30 hours

Current Status

Altitude 489.1 km
Velocity 7.62 km/s
Sub-Earth Point -27.40°S, 70.96°E
Launch Date Apr 14, 2025
Age 0.8 years
Type internet

Technical Details

Classification Payload
Mass 575.00 kg
Dry Mass 530.00 kg
Total Mass 575.00 kg
Length 0.30 m
Diameter 4.10 m
Span 29.00 m
Shape Box + pan
Manufacturer SPXS
Bus Type Starlink V2MO
Phase Status In Orbit
Owner/State SPXS/US

Large Constellations

Loading constellations...